TimeCDT,TemperatureF,Dew PointF,Humidity,Sea Level PressureIn,VisibilityMPH,Wind Direction,Wind SpeedMPH,Gust SpeedMPH,PrecipitationIn,Events,Conditions,WindDirDegrees,DateUTC
12:13 AM,32.0,30.2,93,30.02,7.0,NNW,8.1,18.4,N/A,,Mostly Cloudy,330,2012-10-06 05:13:00
12:32 AM,32.0,30.2,93,30.02,4.0,NNW,8.1,16.1,N/A,Snow,Light Snow,330,2012-10-06 05:32:00
12:53 AM,32.0,30.2,93,30.03,4.0,NNW,8.1,-,N/A,Snow,Light Snow,340,2012-10-06 05:53:00
1:13 AM,32.0,30.2,93,30.04,4.0,NNW,8.1,-,N/A,Snow,Light Snow,330,2012-10-06 06:13:00
1:33 AM,32.0,30.2,93,30.04,4.0,NNW,10.4,16.1,N/A,Snow,Light Snow,330,2012-10-06 06:33:00
1:53 AM,32.0,30.2,93,30.05,4.0,NNW,8.1,-,N/A,Snow,Light Snow,330,2012-10-06 06:53:00
2:13 AM,32.0,30.2,93,30.05,5.0,NNW,6.9,17.3,N/A,Snow,Light Snow,330,2012-10-06 07:13:00
2:33 AM,32.0,30.2,93,30.05,3.0,NW,5.8,-,N/A,Snow,Light Snow,310,2012-10-06 07:33:00
2:53 AM,30.2,30.2,100,30.05,3.0,NW,9.2,-,N/A,Snow,Light Snow,310,2012-10-06 07:53:00
3:13 AM,30.2,30.2,100,30.06,7.0,NNW,10.4,20.7,N/A,Snow,Light Snow,330,2012-10-06 08:13:00
3:32 AM,30.2,30.2,100,30.06,10.0,NW,5.8,19.6,N/A,,Mostly Cloudy,320,2012-10-06 08:32:00
3:53 AM,30.2,30.2,100,30.06,7.0,NW,5.8,-,N/A,,Mostly Cloudy,320,2012-10-06 08:53:00
4:13 AM,30.2,30.2,100,30.07,5.0,NW,8.1,-,N/A,Snow,Light Snow,320,2012-10-06 09:13:00
4:32 AM,30.2,30.2,100,30.07,2.5,NNW,5.8,-,N/A,Snow,Light Snow,330,2012-10-06 09:32:00
4:53 AM,30.2,28.4,93,30.07,4.0,NNW,10.4,18.4,N/A,Snow,Light Snow,340,2012-10-06 09:53:00
5:13 AM,30.2,28.4,93,30.08,10.0,NNW,8.1,-,N/A,,Scattered Clouds,330,2012-10-06 10:13:00
5:32 AM,30.2,28.4,93,30.08,10.0,NNW,9.2,-,N/A,,Clear,330,2012-10-06 10:32:00
5:53 AM,30.2,28.4,93,30.09,10.0,NNW,9.2,-,N/A,,Mostly Cloudy,330,2012-10-06 10:53:00
6:13 AM,30.2,28.4,93,30.10,10.0,NNW,9.2,-,N/A,,Overcast,330,2012-10-06 11:13:00
6:32 AM,30.2,28.4,93,30.10,10.0,NW,6.9,-,N/A,,Overcast,320,2012-10-06 11:32:00
6:53 AM,32.0,28.4,87,30.11,10.0,NNW,11.5,17.3,N/A,,Overcast,330,2012-10-06 11:53:00
7:13 AM,32.0,28.4,87,30.12,10.0,NNW,6.9,-,N/A,,Overcast,330,2012-10-06 12:13:00
7:32 AM,32.0,28.4,87,30.12,10.0,NNW,9.2,-,N/A,,Overcast,330,2012-10-06 12:32:00
7:53 AM,32.0,28.4,87,30.13,10.0,NW,6.9,-,N/A,,Mostly Cloudy,310,2012-10-06 12:53:00
8:13 AM,30.2,30.2,100,30.13,5.0,NW,6.9,-,N/A,Snow,Light Snow,320,2012-10-06 13:13:00
8:32 AM,32.0,30.2,93,30.14,10.0,NW,6.9,-,N/A,,Overcast,310,2012-10-06 13:32:00
8:53 AM,32.0,30.2,93,30.15,10.0,NW,9.2,-,N/A,,Overcast,320,2012-10-06 13:53:00
9:13 AM,32.0,30.2,93,30.15,10.0,NW,8.1,-,N/A,,Overcast,320,2012-10-06 14:13:00
9:33 AM,33.8,30.2,87,30.16,10.0,NW,6.9,-,N/A,,Overcast,310,2012-10-06 14:33:00
9:53 AM,33.8,30.2,87,30.16,10.0,NW,8.1,-,N/A,,Overcast,320,2012-10-06 14:53:00
10:13 AM,35.6,30.2,81,30.16,10.0,WNW,9.2,-,N/A,,Overcast,300,2012-10-06 15:13:00
10:33 AM,35.6,30.2,81,30.17,10.0,NW,9.2,-,N/A,,Overcast,310,2012-10-06 15:33:00
10:53 AM,35.6,30.2,81,30.18,10.0,NW,12.7,17.3,N/A,,Overcast,310,2012-10-06 15:53:00
11:12 AM,35.6,30.2,81,30.18,10.0,NW,4.6,-,N/A,,Overcast,320,2012-10-06 16:12:00
11:33 AM,35.6,28.4,75,30.18,4.0,NW,12.7,17.3,N/A,Snow,Light Snow,310,2012-10-06 16:33:00
11:52 AM,37.4,30.2,75,30.18,10.0,NNW,10.4,16.1,N/A,,Overcast,330,2012-10-06 16:52:00
12:13 PM,37.4,28.4,70,30.18,10.0,NNW,9.2,18.4,N/A,,Overcast,330,2012-10-06 17:13:00
12:33 PM,37.4,28.4,70,30.18,10.0,NNW,10.4,16.1,N/A,,Overcast,330,2012-10-06 17:33:00
12:53 PM,37.4,26.6,65,30.18,10.0,NNW,9.2,18.4,N/A,,Overcast,340,2012-10-06 17:53:00
1:13 PM,39.2,21.2,49,30.17,10.0,NNW,11.5,18.4,N/A,,Overcast,330,2012-10-06 18:13:00
1:33 PM,37.4,23.0,56,30.16,10.0,NW,11.5,18.4,N/A,,Overcast,320,2012-10-06 18:33:00
1:53 PM,41.0,21.2,45,30.16,10.0,NW,13.8,20.7,N/A,,Scattered Clouds,310,2012-10-06 18:53:00
2:13 PM,39.2,21.2,49,30.15,10.0,NNW,9.2,16.1,N/A,,Mostly Cloudy,330,2012-10-06 19:13:00
2:32 PM,39.2,21.2,49,30.15,10.0,NW,6.9,-,N/A,,Overcast,320,2012-10-06 19:32:00
2:53 PM,39.2,21.2,49,30.15,10.0,NW,8.1,-,N/A,,Mostly Cloudy,320,2012-10-06 19:53:00
3:13 PM,39.2,21.2,49,30.14,10.0,North,5.8,-,N/A,,Overcast,350,2012-10-06 20:13:00
3:32 PM,41.0,21.2,45,30.14,10.0,WNW,5.8,-,N/A,,Mostly Cloudy,290,2012-10-06 20:32:00
3:53 PM,42.8,19.4,39,30.13,10.0,NW,10.4,18.4,N/A,,Mostly Cloudy,320,2012-10-06 20:53:00
4:13 PM,41.0,21.2,45,30.13,10.0,NW,5.8,-,N/A,,Mostly Cloudy,310,2012-10-06 21:13:00
4:32 PM,39.2,21.2,49,30.13,10.0,NW,3.5,-,N/A,,Mostly Cloudy,310,2012-10-06 21:32:00
4:53 PM,41.0,21.2,45,30.13,10.0,WNW,3.5,-,N/A,,Mostly Cloudy,300,2012-10-06 21:53:00
5:13 PM,41.0,19.4,42,30.13,10.0,WNW,10.4,17.3,N/A,,Overcast,300,2012-10-06 22:13:00
5:33 PM,41.0,21.2,45,30.13,10.0,WNW,6.9,-,N/A,,Overcast,300,2012-10-06 22:33:00
5:53 PM,39.2,21.2,49,30.13,10.0,NW,4.6,-,N/A,,Mostly Cloudy,310,2012-10-06 22:53:00
6:12 PM,39.2,21.2,49,30.13,10.0,WNW,5.8,-,N/A,,Scattered Clouds,290,2012-10-06 23:12:00
6:33 PM,37.4,21.2,52,30.13,10.0,WNW,5.8,-,N/A,,Scattered Clouds,290,2012-10-06 23:33:00
6:53 PM,35.6,23.0,60,30.13,10.0,West,5.8,-,N/A,,Scattered Clouds,280,2012-10-06 23:53:00
7:12 PM,35.6,24.8,65,30.13,10.0,West,5.8,-,N/A,,Scattered Clouds,270,2012-10-07 00:12:00
7:33 PM,35.6,24.8,65,30.13,10.0,West,4.6,-,N/A,,Clear,270,2012-10-07 00:33:00
7:53 PM,33.8,24.8,70,30.13,10.0,West,4.6,-,N/A,,Clear,270,2012-10-07 00:53:00
8:12 PM,33.8,24.8,70,30.13,10.0,West,5.8,-,N/A,,Clear,270,2012-10-07 01:12:00
8:33 PM,33.8,24.8,70,30.13,10.0,West,5.8,-,N/A,,Clear,270,2012-10-07 01:33:00
8:53 PM,33.8,24.8,70,30.13,10.0,West,4.6,-,N/A,,Clear,270,2012-10-07 01:53:00
9:12 PM,33.8,24.8,70,30.12,10.0,West,5.8,-,N/A,,Clear,260,2012-10-07 02:12:00
9:33 PM,33.8,24.8,70,30.12,10.0,West,5.8,-,N/A,,Clear,260,2012-10-07 02:33:00
9:53 PM,32.0,24.8,75,30.12,10.0,WSW,5.8,-,N/A,,Clear,250,2012-10-07 02:53:00
10:12 PM,32.0,24.8,75,30.12,10.0,WSW,3.5,-,N/A,,Clear,250,2012-10-07 03:12:00
10:33 PM,30.2,24.8,80,30.12,10.0,SW,4.6,-,N/A,,Clear,230,2012-10-07 03:33:00
10:53 PM,30.2,24.8,80,30.11,10.0,WSW,4.6,-,N/A,,Clear,240,2012-10-07 03:53:00
11:12 PM,30.2,24.8,80,30.11,10.0,WSW,4.6,-,N/A,,Clear,240,2012-10-07 04:12:00
11:33 PM,30.2,24.8,80,30.10,10.0,WSW,5.8,-,N/A,,Clear,250,2012-10-07 04:33:00
11:53 PM,30.2,24.8,80,30.09,10.0,WSW,4.6,-,N/A,,Clear,240,2012-10-07 04:53:00